Terminal Aerodrome Forecast
Issued by NWS

Home | Current Version | Previous Version | Text Only | Print | Product List | Glossary On
Versions: 1 2 3 4 5 6 7 8 9 10 11 12 13 14
000
FTUS43 KSGF 210800 AAA
TAFJLN
TAF AMD
KJLN 210818Z 2108/2206 00000KT 1SM BR SKC
     FM210900 00000KT 2SM BR SCT002
      TEMPO 2111/2114 1/2SM FG VV002
     FM211400 VRB03KT 4SM BR SCT004
     FM211500 VRB04KT P6SM SKC=

USA.gov is the U.S. government's official web portal to all federal, state and local government web resources and services.